FOX-1A (AO-85)

Last updated on Mon Sep 15 2025 00:03:09 GMT+0000 (Coordinated Universal Time)

1 40967U 15058D 25257.15724168 .00004288 00000+0 38964-3 0 9994 2 40967 64.7762 55.4839 0147147 162.9910 197.6212 14.88660701 72442
UTC large
Height (km)
Speed (km/s)
/
Latitude / Longitude
Inclination (degrees)
Orbital Period (minutes)
Azimuth
Elevation
Range (km)
Doppler Factor

Next 0 passes for location: London (51.5072 / 0.1276)

Sorry there are no passes over London.